Weather History for KFKA - December, 2012

Change the Weather History Date:

Monday, December 17, 2012

  Actual Average (KRST) Record (KRST)
Temperature  
Mean Temperature 21 °F 19 °F  
Max Temperature 24 °F 26 °F 63 °F (1939)
Min Temperature 18 °F 11 °F -22 °F (1983)
Degree Days  
Heating Degree Days 44 46  
Month to date heating degree days 737  
Since 1 July heating degree days 2409  
Cooling Degree Days 0 0  
Month to date cooling degree days 0  
Year to date cooling degree days 585  
Moisture  
Dew Point 20 °F    
Average Humidity 96    
Maximum Humidity 98    
Minimum Humidity 94    
Precipitation  
Precipitation 0.00 in 0.03 in 0.70 in (1908)
Month to date precipitation 0.76  
Year to date precipitation 32.55  
Snow  
Snow 0.00 in 0.40 in 7.00 in (1908)
Month to date snowfall 7.2  
Since 1 July snowfall 14.1  
Snow Depth -    
Sea Level Pressure  
Sea Level Pressure 29.72 in    
Wind  
Wind Speed 4 mph (North)    
Max Wind Speed 9 mph    
Max Gust Speed -    
Visibility 6 miles    
Events      
T = Trace of Precipitation, MM = Missing Value Source: NWS Daily Summary

Daily Weather History Graph

Daily Weather History Graph

Search for Another Location

Airport or City:

Trip Planner

Search our weather history database for the weather conditions in past years. The results will help you decide how hot, cold, wet, or windy it might be!

Date:

Astronomy

Dec. 17, 2012 Rise Set
Actual Time 7:37 AM CST 4:33 PM CST
Civil Twilight 7:04 AM CST 5:06 PM CST
Nautical Twilight 6:27 AM CST 5:42 PM CST
Astronomical Twilight 5:52 AM CST 6:17 PM CST
Moon 10:37 AM CST (12/17) 10:04 PM CST (12/17)
Length of Visible Light 10h 01m
Length of Day
8h 56m
Waxing Crescent, 25% of the Moon is Illuminated
Dec 17
Waxing Crescent
Dec 19
First Quarter
Dec 28
Full
Jan 4
Last Quarter
Jan 11
New

Hourly Weather History & Observations

Time (CST) Temp. Windchill Dew Point Humidity Pressure Visibility Wind Dir Wind Speed Gust Speed Precip Events Conditions
12:10 AM 20.1 °F 10.3 °F 19.2 °F 96% 29.77 in 5.0 mi NW 8.1 mph - N/A   Overcast
12:50 AM 19.4 °F 9.5 °F 18.5 °F 96% 29.75 in 4.0 mi NNW 8.1 mph - N/A   Overcast
1:10 AM 19.4 °F 8.6 °F 18.5 °F 96% 29.76 in 4.0 mi NNW 9.2 mph - N/A   Overcast
1:30 AM 19.4 °F 8.6 °F 18.5 °F 96% 29.75 in 4.0 mi North 9.2 mph - N/A   Overcast
1:50 AM 19.4 °F 10.4 °F 18.5 °F 96% 29.75 in 3.0 mi NW 6.9 mph - N/A   Overcast
2:10 AM 19.0 °F 10.0 °F 18.1 °F 96% 29.75 in 2.5 mi North 6.9 mph - N/A   Overcast
2:30 AM 19.4 °F 12.8 °F 18.5 °F 96% 29.75 in 2.5 mi NW 4.6 mph - N/A   Overcast
2:50 AM 19.4 °F 11.5 °F 18.3 °F 96% 29.75 in 3.0 mi North 5.8 mph - N/A   Overcast
3:10 AM 19.4 °F 10.4 °F 18.5 °F 96% 29.75 in 3.0 mi NNW 6.9 mph - N/A   Overcast
3:30 AM 19.6 °F 10.6 °F 18.7 °F 96% 29.74 in 2.5 mi North 6.9 mph - N/A   Overcast
3:50 AM 19.4 °F 10.4 °F 18.3 °F 96% 29.73 in 3.0 mi North 6.9 mph - N/A   Overcast
4:10 AM 19.4 °F 11.5 °F 18.5 °F 96% 29.73 in 3.0 mi NNE 5.8 mph - N/A   Overcast
4:30 AM 19.2 °F 11.3 °F 18.3 °F 96% 29.73 in 4.0 mi North 5.8 mph - N/A   Overcast
4:50 AM 19.4 °F 10.4 °F 18.5 °F 96% 29.74 in 3.0 mi North 6.9 mph - N/A   Overcast
5:10 AM 19.4 °F 14.3 °F 18.5 °F 96% 29.74 in 3.0 mi NNW 3.5 mph - N/A   Overcast
5:30 AM 19.4 °F - 18.5 °F 96% 29.75 in 3.0 mi Calm Calm - N/A   Overcast
5:50 AM 19.2 °F 12.5 °F 18.1 °F 96% 29.75 in 4.0 mi North 4.6 mph - N/A   Overcast
6:10 AM 18.9 °F 12.1 °F 17.8 °F 96% 29.75 in 4.0 mi NNE 4.6 mph - N/A   Overcast
6:30 AM 19.0 °F 12.3 °F 18.0 °F 96% 29.75 in 4.0 mi North 4.6 mph - N/A   Overcast
6:50 AM 19.2 °F 14.1 °F 18.3 °F 96% 29.75 in 4.0 mi NE 3.5 mph - N/A   Overcast
7:10 AM 19.0 °F - 18.1 °F 96% 29.75 in 3.0 mi Calm Calm - N/A   Overcast
7:50 AM 19.2 °F 14.1 °F 18.3 °F 96% 29.74 in 2.5 mi North 3.5 mph - N/A   Overcast
8:10 AM 19.6 °F 14.5 °F 18.7 °F 96% 29.73 in 2.0 mi North 3.5 mph - N/A   Overcast
8:30 AM 19.8 °F 14.7 °F 18.7 °F 96% 29.74 in 2.5 mi North 3.5 mph - N/A   Overcast
8:50 AM 19.8 °F - 18.9 °F 96% 29.75 in 2.5 mi Calm Calm - N/A   Overcast
9:10 AM 19.9 °F - 19.0 °F 96% 29.74 in 2.5 mi Calm Calm - N/A   Overcast
9:30 AM 19.4 °F - 18.5 °F 96% 29.74 in 2.5 mi Calm Calm - N/A   Overcast
9:50 AM 19.9 °F 14.9 °F 19.0 °F 96% 29.74 in 2.0 mi NW 3.5 mph - N/A   Overcast
10:10 AM 20.1 °F 15.2 °F 19.0 °F 96% 29.73 in 2.0 mi North 3.5 mph - N/A   Overcast
10:30 AM 20.1 °F - 19.2 °F 96% 29.73 in 2.5 mi Calm Calm - N/A   Overcast
10:50 AM 20.3 °F - 19.2 °F 96% 29.73 in 3.0 mi Calm Calm - N/A   Overcast
11:10 AM 20.8 °F 16.0 °F 19.9 °F 96% 29.72 in 4.0 mi North 3.5 mph - N/A   Overcast
11:30 AM 21.2 °F 16.4 °F 20.3 °F 96% 29.72 in 4.0 mi North 3.5 mph - N/A   Overcast
11:50 AM 21.4 °F - 20.5 °F 96% 29.72 in 5.0 mi Calm Calm - N/A   Overcast
12:10 PM 21.9 °F 17.2 °F 21.2 °F 97% 29.71 in 5.0 mi NNE 3.5 mph - N/A   Overcast
12:30 PM 21.7 °F - 21.0 °F 97% 29.70 in 7.0 mi Calm Calm - N/A   Overcast
12:50 PM 22.1 °F 17.4 °F 21.2 °F 96% 29.69 in 7.0 mi North 3.5 mph - N/A   Overcast
1:10 PM 22.1 °F - 21.6 °F 98% 29.69 in 7.0 mi Calm Calm - N/A   Overcast
1:30 PM 22.1 °F - 21.6 °F 98% 29.68 in 10.0 mi Calm Calm - N/A   Overcast
1:50 PM 22.6 °F - 21.9 °F 97% 29.68 in 10.0 mi Calm Calm - N/A   Overcast
2:10 PM 22.6 °F - 21.9 °F 97% 29.68 in 10.0 mi Calm Calm - N/A   Overcast
2:30 PM 23.0 °F - 22.1 °F 96% 29.68 in 10.0 mi Calm Calm - N/A   Overcast
2:50 PM 23.0 °F - 22.3 °F 97% 29.68 in 10.0 mi Calm Calm - N/A   Overcast
3:10 PM 23.0 °F - 22.1 °F 96% 29.68 in 10.0 mi Calm Calm - N/A   Overcast
3:30 PM 23.0 °F - 22.5 °F 98% 29.68 in 10.0 mi Calm Calm - N/A   Overcast
3:50 PM 23.2 °F 18.7 °F 22.6 °F 98% 29.68 in 10.0 mi East 3.5 mph - N/A   Overcast
6:30 PM 23.4 °F - 22.1 °F 95% 29.69 in 10.0 mi Calm Calm - N/A   Overcast
6:49 PM 23.7 °F - 22.1 °F 94% 29.69 in 10.0 mi Calm Calm - N/A   Overcast
7:10 PM 23.7 °F - 22.3 °F 94% 29.69 in 10.0 mi Calm Calm - N/A   Overcast
7:30 PM 23.9 °F 19.5 °F 22.3 °F 94% 29.68 in 10.0 mi NE 3.5 mph - N/A   Overcast
7:50 PM 23.5 °F - 22.3 °F 95% 29.69 in 10.0 mi Calm Calm - N/A   Overcast
8:10 PM 23.7 °F - 22.5 °F 95% 29.69 in 10.0 mi Calm Calm - N/A   Overcast
8:30 PM 23.7 °F - 22.5 °F 95% 29.69 in 10.0 mi Calm Calm - N/A   Overcast
8:50 PM 23.7 °F - 22.5 °F 95% 29.69 in 10.0 mi Calm Calm - N/A   Overcast
9:09 PM 23.9 °F - 22.6 °F 95% 29.69 in 10.0 mi Calm Calm - N/A   Overcast
9:30 PM 23.9 °F - 22.6 °F 95% 29.69 in 7.0 mi Calm Calm - N/A   Overcast
9:50 PM 23.9 °F - 22.6 °F 95% 29.69 in 7.0 mi Calm Calm - N/A   Overcast
10:10 PM 23.9 °F - 22.8 °F 96% 29.69 in 7.0 mi Calm Calm - N/A   Overcast
10:30 PM 24.3 °F - 23.0 °F 95% 29.68 in 7.0 mi Calm Calm - N/A   Overcast
10:50 PM 24.3 °F - 23.0 °F 95% 29.68 in 7.0 mi Calm Calm - N/A   Overcast
11:10 PM 23.9 °F - 23.0 °F 96% 29.69 in 7.0 mi Calm Calm - N/A   Overcast
11:30 PM 24.3 °F 19.9 °F 23.0 °F 95% 29.69 in 7.0 mi SE 3.5 mph - N/A   Overcast
11:50 PM 24.4 °F 18.6 °F 23.4 °F 96% 29.69 in 5.0 mi South 4.6 mph - N/A   Overcast